Hourly Data Report for August 03, 2003

SHERBROOKE A
QUEBEC

45°26'00.000" N
71°41'00.000" W
241.40 m
7028124
71610
YSC

Download Data

Hourly Data (August 2003)
Hourly Data Report for August 3, 2003
TIME
LST
Temp Definition
°C
Dew Point Definition
°C
Rel Hum Definition
%
Precip. Amount Definition
mm

Wind Dir Definition
10's deg

Wind Spd Definition
km/h
Visibility Definition
km
Stn Press Definition
kPa
Hmdx Definition


Wind Chill Definition


Weather Definition


00:00 17.0 16.1 94   7 7 15.0 98.96      
01:00 16.8 15.7 93   9 9 15.0 98.95      
02:00 17.0 15.8 93   10 6 15.0 98.95      
03:00 17.2 16.1 93   3 4 15.0 98.94      
04:00 17.7 16.7 94     0 15.0 99.02      
05:00 17.4 16.3 93   12 9 15.0 99.00     Rain
06:00 18.3 17.1 93   9 4 15.0 99.01      
07:00 19.8 18.1 90     0 19.3 99.05     Mostly Cloudy
08:00 21.2 18.7 86   7 4 19.3 99.05 28   Mostly Cloudy
09:00 23.6 20.4 82   16 4 19.3 99.05 32   Cloudy
10:00 25.0 20.6 77   20 6 16.1 99.04 33   Mostly Cloudy
11:00 26.2 21.0 73   25 9 16.1 99.01 35   Mostly Cloudy
12:00 27.5 20.8 67   15 7 16.1 98.97 36   Mostly Cloudy
13:00 28.3 20.8 64     0 16.1 98.93 37   Mostly Cloudy
14:00 28.6 20.4 61   23 6 16.1 98.91 37   Mostly Cloudy
15:00 29.3 19.3 55     0 16.1 98.90 36   Mostly Cloudy
16:00 28.6 19.9 59   32 4 16.1 98.86 36   Mostly Cloudy
17:00 27.5 20.7 66   6 9 9.7 98.84 36    
18:00 25.9 20.8 73   6 6 9.7 98.88 34    
19:00 24.7 20.3 77   5 6 9.7 98.90 33    
20:00 21.6 19.7 89   32 4 0.5 98.94 29   Heavy Rain
21:00 21.1 19.8 92   10 9 6.4 99.01 29   Heavy Rain
22:00 20.6 19.5 93   7 6 8.0 99.03 28    
23:00 20.6 19.5 93   6 9 6.4 98.99 28   Moderate Rain

Notes on Data Quality.

Legend

  • E = Estimated
  • M = Missing
  • NA = Not Available*
  • [empty] = Indicates an unobserved value
Date modified: